Year,Month,Day,Hour,Minute,Value (Times are PST for temperature in C)
2019,02,10,00,00,-3.40
2019,02,10,00,01,-3.50
2019,02,10,00,02,-3.60
2019,02,10,00,03,-3.60
2019,02,10,00,04,-3.60
2019,02,10,00,05,-3.70
2019,02,10,00,06,-3.70
2019,02,10,00,07,-3.70
2019,02,10,00,08,-3.70
2019,02,10,00,09,-3.70
2019,02,10,00,10,-3.70
2019,02,10,00,11,-3.80
2019,02,10,00,12,-3.80
2019,02,10,00,13,-3.90
2019,02,10,00,14,-4.00
2019,02,10,00,15,-4.00
2019,02,10,00,16,-4.10
2019,02,10,00,17,-4.10
2019,02,10,00,18,-4.20
2019,02,10,00,19,-4.20
2019,02,10,00,20,-4.20
2019,02,10,00,21,-4.10
2019,02,10,00,22,-4.20
2019,02,10,00,23,-4.20
2019,02,10,00,24,-4.20
2019,02,10,00,25,-4.30
2019,02,10,00,26,-4.30
2019,02,10,00,27,-4.40
2019,02,10,00,28,-4.40
2019,02,10,00,29,-4.50
2019,02,10,00,30,-4.50
2019,02,10,00,31,-4.60
2019,02,10,00,32,-4.50
2019,02,10,00,33,-4.50
2019,02,10,00,34,-4.50
2019,02,10,00,35,-4.50
2019,02,10,00,36,-4.40
2019,02,10,00,37,-4.40
2019,02,10,00,38,-4.40
2019,02,10,00,39,-4.30
2019,02,10,00,40,-4.20
2019,02,10,00,41,-4.20
2019,02,10,00,42,-4.10
2019,02,10,00,43,-4.10
2019,02,10,00,44,-4.20
2019,02,10,00,45,-4.20
2019,02,10,00,46,-4.20
2019,02,10,00,47,-4.20
2019,02,10,00,48,-4.20
2019,02,10,00,49,-4.20
2019,02,10,00,50,-4.10
2019,02,10,00,51,-4.20
2019,02,10,00,52,-4.20
2019,02,10,00,53,-4.30
2019,02,10,00,54,-4.40
2019,02,10,00,55,-4.40
2019,02,10,00,56,-4.50
2019,02,10,00,57,-4.50
2019,02,10,00,58,-4.50
2019,02,10,00,59,-4.60
2019,02,10,01,00,-4.60
2019,02,10,01,01,-4.60
2019,02,10,01,02,-4.70
2019,02,10,01,03,-4.80
2019,02,10,01,04,-4.90
2019,02,10,01,05,-4.90
2019,02,10,01,06,-5.00
2019,02,10,01,07,-5.00
2019,02,10,01,08,-5.00
2019,02,10,01,09,-4.90
2019,02,10,01,10,-4.80
2019,02,10,01,11,-4.70
2019,02,10,01,12,-4.50
2019,02,10,01,13,-4.40
2019,02,10,01,14,-4.20
2019,02,10,01,15,-4.10
2019,02,10,01,16,-3.90
2019,02,10,01,17,-3.80
2019,02,10,01,18,-3.70
2019,02,10,01,19,-3.70
2019,02,10,01,20,-3.70
2019,02,10,01,21,-3.70
2019,02,10,01,22,-3.70
2019,02,10,01,23,-3.70
2019,02,10,01,24,-3.80
2019,02,10,01,25,-3.80
2019,02,10,01,26,-3.90
2019,02,10,01,27,-4.00
2019,02,10,01,28,-4.10
2019,02,10,01,29,-4.20
2019,02,10,01,30,-4.30
2019,02,10,01,31,-4.40
2019,02,10,01,32,-4.60
2019,02,10,01,33,-4.70
2019,02,10,01,34,-4.80
2019,02,10,01,35,-4.90
2019,02,10,01,36,-5.00
2019,02,10,01,37,-5.00
2019,02,10,01,38,-5.10
2019,02,10,01,39,-5.10
2019,02,10,01,40,-5.10
2019,02,10,01,41,-5.20
2019,02,10,01,42,-5.20
2019,02,10,01,43,-5.10
2019,02,10,01,44,-5.10
2019,02,10,01,45,-5.00
2019,02,10,01,46,-4.90
2019,02,10,01,47,-4.90
2019,02,10,01,48,-4.80
2019,02,10,01,49,-4.80
2019,02,10,01,50,-4.70
2019,02,10,01,51,-4.60
2019,02,10,01,52,-4.50
2019,02,10,01,53,-4.40
2019,02,10,01,54,-4.30
2019,02,10,01,55,-4.30
2019,02,10,01,56,-4.30
2019,02,10,01,57,-4.30
2019,02,10,01,58,-4.30
2019,02,10,01,59,-4.30
2019,02,10,02,00,-4.30
2019,02,10,02,01,-4.20
2019,02,10,02,02,-4.10
2019,02,10,02,03,-4.00
2019,02,10,02,04,-4.00
2019,02,10,02,05,-3.90
2019,02,10,02,06,-3.80
2019,02,10,02,07,-3.70
2019,02,10,02,08,-3.60
2019,02,10,02,09,-3.50
2019,02,10,02,10,-3.50
2019,02,10,02,11,-3.40
2019,02,10,02,12,-3.50
2019,02,10,02,13,-3.60
2019,02,10,02,14,-3.60
2019,02,10,02,15,-3.70
2019,02,10,02,16,-3.90
2019,02,10,02,17,-4.00
2019,02,10,02,18,-4.10
2019,02,10,02,19,-4.20
2019,02,10,02,20,-4.30
2019,02,10,02,21,-4.40
2019,02,10,02,22,-4.50
2019,02,10,02,23,-4.50
2019,02,10,02,24,-4.50
2019,02,10,02,25,-4.60
2019,02,10,02,26,-4.60
2019,02,10,02,27,-4.70
2019,02,10,02,28,-4.70
2019,02,10,02,29,-4.80
2019,02,10,02,30,-4.80
2019,02,10,02,31,-4.80
2019,02,10,02,32,-4.80
2019,02,10,02,33,-4.80
2019,02,10,02,34,-4.70
2019,02,10,02,35,-4.70
2019,02,10,02,36,-4.70
2019,02,10,02,37,-4.70
2019,02,10,02,38,-4.70
2019,02,10,02,39,-4.80
2019,02,10,02,40,-4.80
2019,02,10,02,41,-4.90
2019,02,10,02,42,-4.90
2019,02,10,02,43,-4.90
2019,02,10,02,44,-4.90
2019,02,10,02,45,-4.90
2019,02,10,02,46,-4.90
2019,02,10,02,47,-4.90
2019,02,10,02,48,-4.90
2019,02,10,02,49,-4.90
2019,02,10,02,50,-4.90
2019,02,10,02,51,-4.90
2019,02,10,02,52,-4.90
2019,02,10,02,53,-4.90
2019,02,10,02,54,-4.90
2019,02,10,02,55,-4.90
2019,02,10,02,56,-5.00
2019,02,10,02,57,-5.00
2019,02,10,02,58,-5.10
2019,02,10,02,59,-5.10
2019,02,10,03,00,-5.00
2019,02,10,03,01,-4.90
2019,02,10,03,02,-4.80
2019,02,10,03,03,-4.80
2019,02,10,03,04,-4.90
2019,02,10,03,05,-5.00
2019,02,10,03,06,-5.10
2019,02,10,03,07,-5.20
2019,02,10,03,08,-5.30
2019,02,10,03,09,-5.30
2019,02,10,03,10,-5.40
2019,02,10,03,11,-5.40
2019,02,10,03,12,-5.40
2019,02,10,03,13,-5.50
2019,02,10,03,14,-5.60
2019,02,10,03,15,-5.70
2019,02,10,03,16,-5.70
2019,02,10,03,17,-5.70
2019,02,10,03,18,-5.80
2019,02,10,03,19,-5.90
2019,02,10,03,20,-6.00
2019,02,10,03,21,-6.10
2019,02,10,03,22,-6.20
2019,02,10,03,23,-6.30
2019,02,10,03,24,-6.30
2019,02,10,03,25,-6.40
2019,02,10,03,26,-6.40
2019,02,10,03,27,-6.40
2019,02,10,03,28,-6.50
2019,02,10,03,29,-6.50
2019,02,10,03,30,-6.40
2019,02,10,03,31,-6.40
2019,02,10,03,32,-6.40
2019,02,10,03,33,-6.50
2019,02,10,03,34,-6.50
2019,02,10,03,35,-6.60
2019,02,10,03,36,-6.60
2019,02,10,03,37,-6.60
2019,02,10,03,38,-6.60
2019,02,10,03,39,-6.60
2019,02,10,03,40,-6.60
2019,02,10,03,41,-6.60
2019,02,10,03,42,-6.60
2019,02,10,03,43,-6.70
2019,02,10,03,44,-6.70
2019,02,10,03,45,-6.70
2019,02,10,03,46,-6.70
2019,02,10,03,47,-6.70
2019,02,10,03,48,-6.80
2019,02,10,03,49,-6.80
2019,02,10,03,50,-6.80
2019,02,10,03,51,-6.80
2019,02,10,03,52,-6.90
2019,02,10,03,53,-6.90
2019,02,10,03,54,-6.90
2019,02,10,03,55,-6.80
2019,02,10,03,56,-6.80
2019,02,10,03,57,-6.80
2019,02,10,03,58,-6.80
2019,02,10,03,59,-6.80
2019,02,10,04,00,-6.90
2019,02,10,04,01,-6.90
2019,02,10,04,02,-6.90
2019,02,10,04,03,-7.00
2019,02,10,04,04,-7.00
2019,02,10,04,05,-7.00
2019,02,10,04,06,-7.10
2019,02,10,04,07,-7.10
2019,02,10,04,08,-7.00
2019,02,10,04,09,-7.00
2019,02,10,04,10,-7.00
2019,02,10,04,11,-7.10
2019,02,10,04,12,-7.10
2019,02,10,04,13,-7.10
2019,02,10,04,14,-7.10
2019,02,10,04,15,-7.10
2019,02,10,04,16,-7.20
2019,02,10,04,17,-7.20
2019,02,10,04,18,-7.20
2019,02,10,04,19,-7.20
2019,02,10,04,20,-7.20
2019,02,10,04,21,-7.20
2019,02,10,04,22,-7.20
2019,02,10,04,23,-7.20
2019,02,10,04,24,-7.20
2019,02,10,04,25,-7.30
2019,02,10,04,26,-7.30
2019,02,10,04,27,-7.40
2019,02,10,04,28,-7.40
2019,02,10,04,29,-7.40
2019,02,10,04,30,-7.40
2019,02,10,04,31,-7.40
2019,02,10,04,32,-7.40
2019,02,10,04,33,-7.40
2019,02,10,04,34,-7.50
2019,02,10,04,35,-7.50
2019,02,10,04,36,-7.50
2019,02,10,04,37,-7.50
2019,02,10,04,38,-7.50
2019,02,10,04,39,-7.50
2019,02,10,04,40,-7.50
2019,02,10,04,41,-7.50
2019,02,10,04,42,-7.60
2019,02,10,04,43,-7.60
2019,02,10,04,44,-7.60
2019,02,10,04,45,-7.60
2019,02,10,04,46,-7.60
2019,02,10,04,47,-7.70
2019,02,10,04,48,-7.70
2019,02,10,04,49,-7.70
2019,02,10,04,50,-7.70
2019,02,10,04,51,-7.70
2019,02,10,04,52,-7.70
2019,02,10,04,53,-7.70
2019,02,10,04,54,-7.70
2019,02,10,04,55,-7.70
2019,02,10,04,56,-7.70
2019,02,10,04,57,-7.70
2019,02,10,04,58,-7.70
2019,02,10,04,59,-7.70
2019,02,10,05,00,-7.70
2019,02,10,05,01,-7.70
2019,02,10,05,02,-7.70
2019,02,10,05,03,-7.70
2019,02,10,05,04,-7.70
2019,02,10,05,05,-7.80
2019,02,10,05,06,-7.80
2019,02,10,05,07,-7.80
2019,02,10,05,08,-7.80
2019,02,10,05,09,-7.80
2019,02,10,05,10,-7.80
2019,02,10,05,11,-7.90
2019,02,10,05,12,-7.90
2019,02,10,05,13,-7.90
2019,02,10,05,14,-7.90
2019,02,10,05,15,-7.90
2019,02,10,05,16,-8.00
2019,02,10,05,17,-8.00
2019,02,10,05,18,-8.00
2019,02,10,05,19,-8.10
2019,02,10,05,20,-8.10
2019,02,10,05,21,-8.10
2019,02,10,05,22,-8.10
2019,02,10,05,23,-8.10
2019,02,10,05,24,-8.10
2019,02,10,05,25,-8.10
2019,02,10,05,26,-8.10
2019,02,10,05,27,-8.10
2019,02,10,05,28,-8.10
2019,02,10,05,29,-8.20
2019,02,10,05,30,-8.20
2019,02,10,05,31,-8.20
2019,02,10,05,32,-8.20
2019,02,10,05,33,-8.20
2019,02,10,05,34,-8.30
2019,02,10,05,35,-8.30
2019,02,10,05,36,-8.30
2019,02,10,05,37,-8.30
2019,02,10,05,38,-8.20
2019,02,10,05,39,-8.30
2019,02,10,05,40,-8.30
2019,02,10,05,41,-8.30
2019,02,10,05,42,-8.30
2019,02,10,05,43,-8.30
2019,02,10,05,44,-8.40
2019,02,10,05,45,-8.40
2019,02,10,05,46,-8.40
2019,02,10,05,47,-8.40
2019,02,10,05,48,-8.40
2019,02,10,05,49,-8.40
2019,02,10,05,50,-8.40
2019,02,10,05,51,-8.50
2019,02,10,05,52,-8.50
2019,02,10,05,53,-8.50
2019,02,10,05,54,-8.50
2019,02,10,05,55,-8.50
2019,02,10,05,56,-8.50
2019,02,10,05,57,-8.50
2019,02,10,05,58,-8.50
2019,02,10,05,59,-8.60
2019,02,10,06,00,-8.60
2019,02,10,06,01,-8.60
2019,02,10,06,02,-8.50
2019,02,10,06,03,-8.50
2019,02,10,06,04,-8.50
2019,02,10,06,05,-8.50
2019,02,10,06,06,-8.50
2019,02,10,06,07,-8.40
2019,02,10,06,08,-8.40
2019,02,10,06,09,-8.40
2019,02,10,06,10,-8.40
2019,02,10,06,11,-8.30
2019,02,10,06,12,-8.30
2019,02,10,06,13,-8.40
2019,02,10,06,14,-8.40
2019,02,10,06,15,-8.30
2019,02,10,06,16,-8.30
2019,02,10,06,17,-8.30
2019,02,10,06,18,-8.30
2019,02,10,06,19,-8.30
2019,02,10,06,20,-8.30
2019,02,10,06,21,-8.30
2019,02,10,06,22,-8.40
2019,02,10,06,23,-8.40
2019,02,10,06,24,-8.40
2019,02,10,06,25,-8.50
2019,02,10,06,26,-8.50
2019,02,10,06,27,-8.50
2019,02,10,06,28,-8.50
2019,02,10,06,29,-8.50
2019,02,10,06,30,-8.50
2019,02,10,06,31,-8.50
2019,02,10,06,32,-8.60
2019,02,10,06,33,-8.60
2019,02,10,06,34,-8.60
2019,02,10,06,35,-8.60
2019,02,10,06,36,-8.60
2019,02,10,06,37,-8.60
2019,02,10,06,38,-8.60
2019,02,10,06,39,-8.60
2019,02,10,06,40,-8.60
2019,02,10,06,41,-8.70
2019,02,10,06,42,-8.70
2019,02,10,06,43,-8.70
2019,02,10,06,44,-8.60
2019,02,10,06,45,-8.60
2019,02,10,06,46,-8.60
2019,02,10,06,47,-8.60
2019,02,10,06,48,-8.60
2019,02,10,06,49,-8.50
2019,02,10,06,50,-8.50
2019,02,10,06,51,-8.50
2019,02,10,06,52,-8.50
2019,02,10,06,53,-8.50
2019,02,10,06,54,-8.50
2019,02,10,06,55,-8.40
2019,02,10,06,56,-8.40
2019,02,10,06,57,-8.40
2019,02,10,06,58,-8.40
2019,02,10,06,59,-8.40
2019,02,10,07,00,-8.40
2019,02,10,07,01,-8.30
2019,02,10,07,02,-8.30
2019,02,10,07,03,-8.30
2019,02,10,07,04,-8.30
2019,02,10,07,05,-8.30
2019,02,10,07,06,-8.30
2019,02,10,07,07,-8.20
2019,02,10,07,08,-8.20
2019,02,10,07,09,-8.20
2019,02,10,07,10,-8.10
2019,02,10,07,11,-8.10
2019,02,10,07,12,-8.00
2019,02,10,07,13,-8.00
2019,02,10,07,14,-7.90
2019,02,10,07,15,-7.90
2019,02,10,07,16,-7.80
2019,02,10,07,17,-7.80
2019,02,10,07,18,-7.80
2019,02,10,07,19,-7.80
2019,02,10,07,20,-7.80
2019,02,10,07,21,-7.70
2019,02,10,07,22,-7.70
2019,02,10,07,23,-7.70
2019,02,10,07,24,-7.70
2019,02,10,07,25,-7.70
2019,02,10,07,26,-7.60
2019,02,10,07,27,-7.60
2019,02,10,07,28,-7.60
2019,02,10,07,29,-7.60
2019,02,10,07,30,-7.60
2019,02,10,07,31,-7.50
2019,02,10,07,32,-7.50
2019,02,10,07,33,-7.50
2019,02,10,07,34,-7.50
2019,02,10,07,35,-7.50
2019,02,10,07,36,-7.40
2019,02,10,07,37,-7.40
2019,02,10,07,38,-7.40
2019,02,10,07,39,-7.40
2019,02,10,07,40,-7.30
2019,02,10,07,41,-7.30
2019,02,10,07,42,-7.30
2019,02,10,07,43,-7.30
2019,02,10,07,44,-7.30
2019,02,10,07,45,-7.20
2019,02,10,07,46,-7.20
2019,02,10,07,47,-7.20
2019,02,10,07,48,-7.20
2019,02,10,07,49,-7.20
2019,02,10,07,50,-7.20
2019,02,10,07,51,-7.20
2019,02,10,07,52,-7.10
2019,02,10,07,53,-7.10
2019,02,10,07,54,-7.10
2019,02,10,07,55,-7.00
2019,02,10,07,56,-7.00
2019,02,10,07,57,-6.90
2019,02,10,07,58,-6.90
2019,02,10,07,59,-6.90
2019,02,10,08,00,-6.80
2019,02,10,08,01,-6.80
2019,02,10,08,02,-6.80
2019,02,10,08,03,-6.80
2019,02,10,08,04,-6.80
2019,02,10,08,05,-6.80
2019,02,10,08,06,-6.80
2019,02,10,08,07,-6.70
2019,02,10,08,08,-6.70
2019,02,10,08,09,-6.70
2019,02,10,08,10,-6.70
2019,02,10,08,11,-6.70
2019,02,10,08,12,-6.70
2019,02,10,08,13,-6.60
2019,02,10,08,14,-6.60
2019,02,10,08,15,-6.60
2019,02,10,08,16,-6.60
2019,02,10,08,17,-6.60
2019,02,10,08,18,-6.60
2019,02,10,08,19,-6.60
2019,02,10,08,20,-6.60
2019,02,10,08,21,-6.60
2019,02,10,08,22,-6.60
2019,02,10,08,23,-6.50
2019,02,10,08,24,-6.50
2019,02,10,08,25,-6.50
2019,02,10,08,26,-6.40
2019,02,10,08,27,-6.40
2019,02,10,08,28,-6.40
2019,02,10,08,29,-6.40
2019,02,10,08,30,-6.40
2019,02,10,08,31,-6.40
2019,02,10,08,32,-6.40
2019,02,10,08,33,-6.30
2019,02,10,08,34,-6.30
2019,02,10,08,35,-6.30
2019,02,10,08,36,-6.30
2019,02,10,08,37,-6.30
2019,02,10,08,38,-6.30
2019,02,10,08,39,-6.30
2019,02,10,08,40,-6.20
2019,02,10,08,41,-6.20
2019,02,10,08,42,-6.20
2019,02,10,08,43,-6.20
2019,02,10,08,44,-6.20
2019,02,10,08,45,-6.20
2019,02,10,08,46,-6.20
2019,02,10,08,47,-6.10
2019,02,10,08,48,-6.10
2019,02,10,08,49,-6.10
2019,02,10,08,50,-6.10
2019,02,10,08,51,-6.00
2019,02,10,08,52,-6.00
2019,02,10,08,53,-6.00
2019,02,10,08,54,-5.90
2019,02,10,08,55,-5.90
2019,02,10,08,56,-5.80
2019,02,10,08,57,-5.80
2019,02,10,08,58,-5.80
2019,02,10,08,59,-5.70
2019,02,10,09,00,-5.70
2019,02,10,09,01,-5.70
2019,02,10,09,02,-5.60
2019,02,10,09,03,-5.60
2019,02,10,09,04,-5.60
2019,02,10,09,05,-5.60
2019,02,10,09,06,-5.50
2019,02,10,09,07,-5.50
2019,02,10,09,08,-5.50
2019,02,10,09,09,-5.40
2019,02,10,09,10,-5.40
2019,02,10,09,11,-5.40
2019,02,10,09,12,-5.40
2019,02,10,09,13,-5.40
2019,02,10,09,14,-5.40
2019,02,10,09,15,-5.30
2019,02,10,09,16,-5.30
2019,02,10,09,17,-5.30
2019,02,10,09,18,-5.20
2019,02,10,09,19,-5.20
2019,02,10,09,20,-5.10
2019,02,10,09,21,-5.10
2019,02,10,09,22,-5.00
2019,02,10,09,23,-5.00
2019,02,10,09,24,-4.90
2019,02,10,09,25,-4.90
2019,02,10,09,26,-4.80
2019,02,10,09,27,-4.80
2019,02,10,09,28,-4.70
2019,02,10,09,29,-4.70
2019,02,10,09,30,-4.70
2019,02,10,09,31,-4.60
2019,02,10,09,32,-4.60
2019,02,10,09,33,-4.50
2019,02,10,09,34,-4.50
2019,02,10,09,35,-4.40
2019,02,10,09,36,-4.40
2019,02,10,09,37,-4.40
2019,02,10,09,38,-4.30
2019,02,10,09,39,-4.30
2019,02,10,09,40,-4.30
2019,02,10,09,41,-4.30
2019,02,10,09,42,-4.20
2019,02,10,09,43,-4.20
2019,02,10,09,44,-4.20
2019,02,10,09,45,-4.10
2019,02,10,09,46,-4.10
2019,02,10,09,47,-4.00
2019,02,10,09,48,-4.00
2019,02,10,09,49,-4.00
2019,02,10,09,50,-3.90
2019,02,10,09,51,-3.90
2019,02,10,09,52,-3.80
2019,02,10,09,53,-3.80
2019,02,10,09,54,-3.80
2019,02,10,09,55,-3.80
2019,02,10,09,56,-3.80
2019,02,10,09,57,-3.80
2019,02,10,09,58,-3.70
2019,02,10,09,59,-3.70
2019,02,10,10,00,-3.70
2019,02,10,10,01,-3.70
2019,02,10,10,02,-3.60
2019,02,10,10,03,-3.60
2019,02,10,10,04,-3.60
2019,02,10,10,05,-3.50
2019,02,10,10,06,-3.50
2019,02,10,10,07,-3.40
2019,02,10,10,08,-3.40
2019,02,10,10,09,-3.40
2019,02,10,10,10,-3.30
2019,02,10,10,11,-3.30
2019,02,10,10,12,-3.30
2019,02,10,10,13,-3.30
2019,02,10,10,14,-3.20
2019,02,10,10,15,-3.20
2019,02,10,10,16,-3.20
2019,02,10,10,17,-3.20
2019,02,10,10,18,-3.20
2019,02,10,10,19,-3.20
2019,02,10,10,20,-3.10
2019,02,10,10,21,-3.10
2019,02,10,10,22,-3.10
2019,02,10,10,23,-3.10
2019,02,10,10,24,-3.00
2019,02,10,10,25,-3.00
2019,02,10,10,26,-3.00
2019,02,10,10,27,-2.90
2019,02,10,10,28,-2.90
2019,02,10,10,29,-2.90
2019,02,10,10,30,-2.80
2019,02,10,10,31,-2.80
2019,02,10,10,32,-2.80
2019,02,10,10,33,-2.70
2019,02,10,10,34,-2.70
2019,02,10,10,35,-2.70
2019,02,10,10,36,-2.60
2019,02,10,10,37,-2.60
2019,02,10,10,38,-2.50
2019,02,10,10,39,-2.50
2019,02,10,10,40,-2.50
2019,02,10,10,41,-2.50
2019,02,10,10,42,-2.50
2019,02,10,10,43,-2.40
2019,02,10,10,44,-2.40
2019,02,10,10,45,-2.40
2019,02,10,10,46,-2.40
2019,02,10,10,47,-2.40
2019,02,10,10,48,-2.30
2019,02,10,10,49,-2.30
2019,02,10,10,50,-2.30
2019,02,10,10,51,-2.30
2019,02,10,10,52,-2.20
2019,02,10,10,53,-2.20
2019,02,10,10,54,-2.20
2019,02,10,10,55,-2.10
2019,02,10,10,56,-2.10
2019,02,10,10,57,-2.10
2019,02,10,10,58,-2.00
2019,02,10,10,59,-2.00
2019,02,10,11,00,-2.00
2019,02,10,11,01,-1.90
2019,02,10,11,02,-1.90
2019,02,10,11,03,-1.90
2019,02,10,11,04,-1.80
2019,02,10,11,05,-1.80
2019,02,10,11,06,-1.80
2019,02,10,11,07,-1.80
2019,02,10,11,08,-1.70
2019,02,10,11,09,-1.70
2019,02,10,11,10,-1.70
2019,02,10,11,11,-1.60
2019,02,10,11,12,-1.60
2019,02,10,11,13,-1.60
2019,02,10,11,14,-1.60
2019,02,10,11,15,-1.50
2019,02,10,11,16,-1.50
2019,02,10,11,17,-1.40
2019,02,10,11,18,-1.40
2019,02,10,11,19,-1.40
2019,02,10,11,20,-1.40
2019,02,10,11,21,-1.40
2019,02,10,11,22,-1.40
2019,02,10,11,23,-1.40
2019,02,10,11,24,-1.40
2019,02,10,11,25,-1.40
2019,02,10,11,26,-1.40
2019,02,10,11,27,-1.30
2019,02,10,11,28,-1.30
2019,02,10,11,29,-1.30
2019,02,10,11,30,-1.20
2019,02,10,11,31,-1.20
2019,02,10,11,32,-1.20
2019,02,10,11,33,-1.20
2019,02,10,11,34,-1.10
2019,02,10,11,35,-1.20
2019,02,10,11,36,-1.20
2019,02,10,11,37,-1.20
2019,02,10,11,38,-1.20
2019,02,10,11,39,-1.20
2019,02,10,11,40,-1.30
2019,02,10,11,41,-1.30
2019,02,10,11,42,-1.30
2019,02,10,11,43,-1.40
2019,02,10,11,44,-1.40
2019,02,10,11,45,-1.50
2019,02,10,11,46,-1.50
2019,02,10,11,47,-1.50
2019,02,10,11,48,-1.50
2019,02,10,11,49,-1.60
2019,02,10,11,50,-1.60
2019,02,10,11,51,-1.60
2019,02,10,11,52,-1.60
2019,02,10,11,53,-1.60
2019,02,10,11,54,-1.70
2019,02,10,11,55,-1.70
2019,02,10,11,56,-1.70
2019,02,10,11,57,-1.70
2019,02,10,11,58,-1.70
2019,02,10,11,59,-1.70
2019,02,10,12,00,-1.70
2019,02,10,12,01,-1.70
2019,02,10,12,02,-1.70
2019,02,10,12,03,-1.70
2019,02,10,12,04,-1.80
2019,02,10,12,05,-1.80
2019,02,10,12,06,-1.80
2019,02,10,12,07,-1.80
2019,02,10,12,08,-1.80
2019,02,10,12,09,-1.80
2019,02,10,12,10,-1.80
2019,02,10,12,11,-1.80
2019,02,10,12,12,-1.80
2019,02,10,12,13,-1.80
2019,02,10,12,14,-1.80
2019,02,10,12,15,-1.80
2019,02,10,12,16,-1.90
2019,02,10,12,17,-1.90
2019,02,10,12,18,-1.90
2019,02,10,12,19,-1.90
2019,02,10,12,20,-1.90
2019,02,10,12,21,-1.90
2019,02,10,12,22,-2.00
2019,02,10,12,23,-2.00
2019,02,10,12,24,-2.00
2019,02,10,12,25,-2.10
2019,02,10,12,26,-2.10
2019,02,10,12,27,-2.10
2019,02,10,12,28,-2.10
2019,02,10,12,29,-2.20
2019,02,10,12,30,-2.20
2019,02,10,12,31,-2.20
2019,02,10,12,32,-2.20
2019,02,10,12,33,-2.20
2019,02,10,12,34,-2.20
2019,02,10,12,35,-2.20
2019,02,10,12,41,-2.30
2019,02,10,12,42,-2.30
2019,02,10,12,43,-2.30
2019,02,10,12,44,-2.30
2019,02,10,12,45,-2.30
2019,02,10,12,46,-2.30
2019,02,10,12,47,-2.30
2019,02,10,12,48,-2.30
2019,02,10,12,49,-2.30
2019,02,10,12,50,-2.30
2019,02,10,12,51,-2.30
2019,02,10,12,52,-2.30
2019,02,10,12,53,-2.30
2019,02,10,12,54,-2.20
2019,02,10,12,55,-2.30
2019,02,10,12,56,-2.30
2019,02,10,12,57,-2.30
2019,02,10,12,58,-2.30
2019,02,10,12,59,-2.30
2019,02,10,13,00,-2.30
2019,02,10,13,01,-2.30
2019,02,10,13,02,-2.30
2019,02,10,13,03,-2.30
2019,02,10,13,04,-2.30
2019,02,10,13,05,-2.30
2019,02,10,13,06,-2.30
2019,02,10,13,07,-2.20
2019,02,10,13,08,-2.20
2019,02,10,13,09,-2.20
2019,02,10,13,10,-2.20
2019,02,10,13,11,-2.20
2019,02,10,13,12,-2.20
2019,02,10,13,13,-2.20
2019,02,10,13,14,-2.30
2019,02,10,13,15,-2.30
2019,02,10,13,16,-2.30
2019,02,10,13,17,-2.30
2019,02,10,13,18,-2.30
2019,02,10,13,19,-2.30
2019,02,10,13,20,-2.30
2019,02,10,13,21,-2.30
2019,02,10,13,22,-2.30
2019,02,10,13,23,-2.30
2019,02,10,13,24,-2.30
2019,02,10,13,25,-2.30
2019,02,10,13,26,-2.30
2019,02,10,13,27,-2.30
2019,02,10,13,28,-2.30
2019,02,10,13,29,-2.30
2019,02,10,13,30,-2.30
2019,02,10,13,31,-2.30
2019,02,10,13,32,-2.30
2019,02,10,13,33,-2.30
2019,02,10,13,34,-2.30
2019,02,10,13,35,-2.40
2019,02,10,13,36,-2.40
2019,02,10,13,37,-2.40
2019,02,10,13,38,-2.50
2019,02,10,13,39,-2.50
2019,02,10,13,40,-2.40
2019,02,10,13,41,-2.50
2019,02,10,13,42,-2.40
2019,02,10,13,43,-2.40
2019,02,10,13,44,-2.40
2019,02,10,13,45,-2.40
2019,02,10,13,46,-2.40
2019,02,10,13,47,-2.40
2019,02,10,13,48,-2.40
2019,02,10,13,49,-2.40
2019,02,10,13,50,-2.40
2019,02,10,13,51,-2.40
2019,02,10,13,52,-2.40
2019,02,10,13,53,-2.40
2019,02,10,13,54,-2.40
2019,02,10,13,55,-2.40
2019,02,10,13,56,-2.30
2019,02,10,13,57,-2.40
2019,02,10,13,58,-2.40
2019,02,10,13,59,-2.40
2019,02,10,14,00,-2.40
2019,02,10,14,01,-2.40
2019,02,10,14,02,-2.40
2019,02,10,14,03,-2.40
2019,02,10,14,04,-2.30
2019,02,10,14,05,-2.30
2019,02,10,14,06,-2.30
2019,02,10,14,07,-2.30
2019,02,10,14,08,-2.30
2019,02,10,14,09,-2.30
2019,02,10,14,10,-2.30
2019,02,10,14,11,-2.30
2019,02,10,14,12,-2.30
2019,02,10,14,13,-2.30
2019,02,10,14,14,-2.30
2019,02,10,14,15,-2.30
2019,02,10,14,16,-2.30
2019,02,10,14,17,-2.30
2019,02,10,14,18,-2.30
2019,02,10,14,19,-2.30
2019,02,10,14,20,-2.30
2019,02,10,14,21,-2.30
2019,02,10,14,22,-2.30
2019,02,10,14,23,-2.30
2019,02,10,14,24,-2.30
2019,02,10,14,25,-2.40
2019,02,10,14,26,-2.40
2019,02,10,14,27,-2.40
2019,02,10,14,28,-2.40
2019,02,10,14,29,-2.40
2019,02,10,14,30,-2.40
2019,02,10,14,31,-2.40
2019,02,10,14,32,-2.40
2019,02,10,14,33,-2.40
2019,02,10,14,34,-2.40
2019,02,10,14,35,-2.40
2019,02,10,14,36,-2.40
2019,02,10,14,37,-2.40
2019,02,10,14,38,-2.40
2019,02,10,14,39,-2.40
2019,02,10,14,40,-2.30
2019,02,10,14,41,-2.40
2019,02,10,14,42,-2.30
2019,02,10,14,43,-2.30
2019,02,10,14,44,-2.30
2019,02,10,14,45,-2.30
2019,02,10,14,46,-2.30
2019,02,10,14,47,-2.30
2019,02,10,14,48,-2.30
2019,02,10,14,49,-2.30
2019,02,10,14,50,-2.30
2019,02,10,14,51,-2.30
2019,02,10,14,52,-2.30
2019,02,10,14,53,-2.20
2019,02,10,14,54,-2.20
2019,02,10,14,55,-2.20
2019,02,10,14,56,-2.20
2019,02,10,14,57,-2.20
2019,02,10,14,58,-2.20
2019,02,10,14,59,-2.20
2019,02,10,15,00,-2.20
2019,02,10,15,01,-2.20
2019,02,10,15,02,-2.20
2019,02,10,15,03,-2.20
2019,02,10,15,04,-2.20
2019,02,10,15,05,-2.20
2019,02,10,15,06,-2.20
2019,02,10,15,07,-2.20
2019,02,10,15,08,-2.10
2019,02,10,15,09,-2.10
2019,02,10,15,10,-2.10
2019,02,10,15,11,-2.10
2019,02,10,15,12,-2.10
2019,02,10,15,13,-2.10
2019,02,10,15,14,-2.10
2019,02,10,15,15,-2.10
2019,02,10,15,16,-2.10
2019,02,10,15,17,-2.10
2019,02,10,15,18,-2.20
2019,02,10,15,19,-2.20
2019,02,10,15,20,-2.20
2019,02,10,15,21,-2.10
2019,02,10,15,22,-2.10
2019,02,10,15,23,-2.10
2019,02,10,15,24,-2.20
2019,02,10,15,25,-2.20
2019,02,10,15,26,-2.20
2019,02,10,15,27,-2.10
2019,02,10,15,28,-2.10
2019,02,10,15,29,-2.10
2019,02,10,15,30,-2.10
2019,02,10,15,31,-2.00
2019,02,10,15,32,-2.00
2019,02,10,15,33,-2.00
2019,02,10,15,34,-2.00
2019,02,10,15,35,-2.00
2019,02,10,15,36,-2.00
2019,02,10,15,37,-2.00
2019,02,10,15,38,-2.00
2019,02,10,15,39,-2.00
2019,02,10,15,40,-2.00
2019,02,10,15,41,-2.00
2019,02,10,15,42,-2.00
2019,02,10,15,43,-2.00
2019,02,10,15,44,-2.00
2019,02,10,15,45,-2.00
2019,02,10,15,46,-2.00
2019,02,10,15,47,-2.00
2019,02,10,15,48,-2.00
2019,02,10,15,49,-2.00
2019,02,10,15,50,-2.00
2019,02,10,15,51,-2.10
2019,02,10,15,52,-2.10
2019,02,10,15,53,-2.10
2019,02,10,15,54,-2.10
2019,02,10,15,55,-2.20
2019,02,10,15,56,-2.20
2019,02,10,15,57,-2.20
2019,02,10,15,58,-2.30
2019,02,10,15,59,-2.30
2019,02,10,16,00,-2.30
2019,02,10,16,01,-2.30
2019,02,10,16,02,-2.30
2019,02,10,16,03,-2.30
2019,02,10,16,04,-2.30
2019,02,10,16,05,-2.30
2019,02,10,16,06,-2.30
2019,02,10,16,07,-2.30
2019,02,10,16,08,-2.30
2019,02,10,16,09,-2.30
2019,02,10,16,10,-2.30
2019,02,10,16,11,-2.30
2019,02,10,16,12,-2.30
2019,02,10,16,13,-2.30
2019,02,10,16,14,-2.30
2019,02,10,16,15,-2.30
2019,02,10,16,16,-2.30
2019,02,10,16,17,-2.30
2019,02,10,16,18,-2.30
2019,02,10,16,19,-2.30
2019,02,10,16,20,-2.30
2019,02,10,16,21,-2.40
2019,02,10,16,22,-2.40
2019,02,10,16,23,-2.40
2019,02,10,16,24,-2.40
2019,02,10,16,25,-2.40
2019,02,10,16,26,-2.40
2019,02,10,16,27,-2.40
2019,02,10,16,28,-2.40
2019,02,10,16,29,-2.40
2019,02,10,16,30,-2.40
2019,02,10,16,31,-2.40
2019,02,10,16,32,-2.40
2019,02,10,16,33,-2.40
2019,02,10,16,34,-2.30
2019,02,10,16,35,-2.40
2019,02,10,16,36,-2.40
2019,02,10,16,37,-2.40
2019,02,10,16,38,-2.40
2019,02,10,16,39,-2.50
2019,02,10,16,40,-2.50
2019,02,10,16,41,-2.50
2019,02,10,16,42,-2.50
2019,02,10,16,43,-2.50
2019,02,10,16,44,-2.50
2019,02,10,16,45,-2.60
2019,02,10,16,46,-2.60
2019,02,10,16,47,-2.60
2019,02,10,16,48,-2.60
2019,02,10,16,49,-2.60
2019,02,10,16,50,-2.60
2019,02,10,16,51,-2.60
2019,02,10,16,52,-2.60
2019,02,10,16,53,-2.60
2019,02,10,16,54,-2.60
2019,02,10,16,55,-2.60
2019,02,10,16,56,-2.60
2019,02,10,16,57,-2.60
2019,02,10,16,58,-2.60
2019,02,10,16,59,-2.60
2019,02,10,17,00,-2.60
2019,02,10,17,01,-2.60
2019,02,10,17,02,-2.60
2019,02,10,17,03,-2.60
2019,02,10,17,04,-2.60
2019,02,10,17,05,-2.60
2019,02,10,17,06,-2.60
2019,02,10,17,07,-2.60
2019,02,10,17,08,-2.60
2019,02,10,17,09,-2.60
2019,02,10,17,10,-2.60
2019,02,10,17,11,-2.60
2019,02,10,17,12,-2.60
2019,02,10,17,13,-2.60
2019,02,10,17,14,-2.60
2019,02,10,17,15,-2.60
2019,02,10,17,16,-2.60
2019,02,10,17,17,-2.60
2019,02,10,17,18,-2.60
2019,02,10,17,19,-2.60
2019,02,10,17,20,-2.60
2019,02,10,17,21,-2.60
2019,02,10,17,22,-2.60
2019,02,10,17,23,-2.60
2019,02,10,17,24,-2.60